GW5368 Weather Reports


time (UTC)temp
F
wind
direction
speed
knots
gust
knots
rain 1hr
in
rain 24hr
in
rain mn
in
humidity
%
barometer
mb
20260504141006 66 360 0.0 5.2 0.00 0.00 0.00 56 1014.9
20260504140504 66 360 0.9 3.5 0.00 0.00 0.00 57 1014.9
20260504130507 58 360 0.9 2.6 0.00 0.00 0.00 73 1015.7
20260504110507 51 58 0.0 0.0 0.00 0.00 0.00 84 1016.4
20260504100506 50 103 0.0 0.9 0.00 0.00 0.00 84 1016.1
20260504082006 49 172 0.0 1.7 0.00 0.00 0.00 83 1016.4
20260504081509 48 172 0.0 1.7 0.00 0.00 0.00 82 1016.4
20260504081005 48 172 0.0 1.7 0.00 0.00 0.00 82 1016.4
20260504080503 48 172 0.0 1.7 0.00 0.00 0.00 82 1016.4
20260504050508 45 5 0.0 1.7 0.00 0.00 0.00 72 1016.5
20260504050024 45 5 0.0 1.7 0.00 0.00 0.00 72 1016.5
20260504045507 45 5 0.0 0.9 0.00 0.00 0.00 72 1016.5
20260504045007 45 5 0.0 0.0 0.00 0.00 0.00 72 1016.5
20260504044507 45 5 0.0 0.0 0.00 0.00 0.00 71 1016.4
20260504044006 45 5 0.0 0.0 0.00 0.00 0.00 71 1016.5
20260504043504 45 5 0.0 0.9 0.00 0.00 0.00 71 1016.4
20260504043015 45 5 0.0 0.9 0.00 0.00 0.00 70 1016.4
20260504042506 45 5 0.0 0.9 0.00 0.00 0.00 69 1016.4
20260504042008 45 5 0.0 0.9 0.00 0.00 0.00 69 1016.4
20260504041518 46 5 0.0 0.9 0.00 0.00 0.00 69 1016.3
20260504041008 46 5 0.0 0.9 0.00 0.00 0.00 69 1016.2
20260504040508 46 5 0.0 0.9 0.00 0.00 0.00 69 1016.1
20260504040022 46 5 0.0 0.9 0.00 0.00 0.00 69 1016.1
20260504035509 46 5 0.0 0.9 0.00 0.00 0.00 69 1016.1
20260504035007 46 5 0.0 0.0 0.00 0.00 0.00 68 1016.1
20260504034529 46 5 0.0 0.0 0.00 0.00 0.00 68 1016.1
20260504034010 46 5 0.0 0.0 0.00 0.00 0.00 67 1016.0
20260504033511 46 5 0.0 0.0 0.00 0.00 0.00 67 1016.0
20260504033009 46 5 0.0 0.0 0.00 0.00 0.00 67 1016.0
20260504032504 46 5 0.0 0.0 0.00 0.00 0.00 67 1016.0
20260504032007 46 5 0.0 0.0 0.00 0.00 0.00 66 1016.0
20260504031516 46 5 0.0 0.0 0.00 0.00 0.00 66 1015.9
20260504031007 47 5 0.0 0.0 0.00 0.00 0.00 66 1015.9
20260504030504 47 5 0.0 0.0 0.00 0.00 0.00 66 1016.0
20260504030003 47 5 0.0 0.0 0.00 0.00 0.00 65 1016.0
20260504025504 47 5 0.0 0.0 0.00 0.00 0.00 65 1016.0
20260504025004 47 5 0.0 0.9 0.00 0.00 0.00 65 1016.0
20260504024509 47 5 0.0 0.9 0.00 0.00 0.00 65 1016.0
20260504024005 47 5 0.0 0.0 0.00 0.00 0.00 65 1015.9
20260504023503 48 5 0.0 0.0 0.00 0.00 0.00 64 1016.0
20260504023006 48 5 0.0 0.9 0.00 0.00 0.00 63 1016.0
20260504022503 48 5 0.0 0.9 0.00 0.00 0.00 63 1016.0
20260504022004 48 5 0.0 0.0 0.00 0.00 0.00 63 1016.0
20260504021512 48 5 0.0 0.9 0.00 0.00 0.00 63 1016.0
20260504021004 48 5 0.0 0.9 0.00 0.00 0.00 62 1015.9
20260504020503 49 5 0.0 0.0 0.00 0.00 0.00 62 1015.9
20260504020020 49 5 0.0 0.0 0.00 0.00 0.00 61 1015.9
20260504015502 49 5 0.0 0.9 0.00 0.00 0.00 60 1015.8
20260504015002 49 5 0.0 0.9 0.00 0.00 0.00 61 1015.8
20260504014504 50 5 0.0 0.0 0.00 0.00 0.00 60 1015.7
20260504014005 50 5 0.0 0.0 0.00 0.00 0.00 59 1015.7
20260504013505 50 5 0.0 0.0 0.00 0.00 0.00 58 1015.6
20260504013009 50 5 0.0 0.0 0.00 0.00 0.00 58 1015.6
20260504012504 50 5 0.0 0.0 0.00 0.00 0.00 58 1015.6
20260504012003 51 5 0.0 0.9 0.00 0.00 0.00 58 1015.6
20260504011508 51 5 0.0 0.9 0.00 0.00 0.00 58 1015.5
20260504011007 51 5 0.0 0.0 0.00 0.00 0.00 58 1015.5
20260504010506 52 9 0.0 0.0 0.00 0.00 0.00 56 1015.5
20260504010015 52 5 0.0 0.0 0.00 0.00 0.00 55 1015.4
20260504005504 52 5 0.0 0.0 0.00 0.00 0.00 54 1015.4
20260504005007 53 5 0.0 0.0 0.00 0.00 0.00 53 1015.3
20260504004524 53 5 0.0 0.0 0.00 0.00 0.00 53 1015.2
20260504004009 53 5 0.0 0.0 0.00 0.00 0.00 53 1015.2
20260504003503 53 5 0.0 0.0 0.00 0.00 0.00 51 1015.1
20260504003004 54 5 0.0 0.0 0.00 0.00 0.00 51 1015.0
20260504002503 54 5 0.0 0.0 0.00 0.00 0.00 50 1014.8
20260504002003 54 5 0.0 0.0 0.00 0.00 0.00 50 1014.7
20260504001507 55 5 0.0 0.0 0.00 0.00 0.00 49 1014.7
20260504001005 55 5 0.0 0.0 0.00 0.00 0.00 48 1014.7
20260504000503 56 13 0.0 0.0 0.00 0.00 0.00 48 1014.6
20260504000012 56 360 0.0 0.0 0.00 0.00 0.00 46 1014.6
20260503235504 56 5 0.0 0.0 0.00 0.00 0.00 46 1014.7
20260503235004 57 5 0.0 0.0 0.00 0.00 0.00 44 1014.7
20260503234516 57 5 0.0 0.0 0.00 0.00 0.00 44 1014.6
20260503234007 57 9 0.0 0.9 0.00 0.00 0.00 43 1014.6
20260503233505 57 5 0.0 0.9 0.00 0.00 0.00 43 1014.6
20260503233021 57 355 0.0 1.7 0.00 0.00 0.00 43 1014.5
20260503232506 57 352 0.0 4.3 0.00 0.00 0.00 43 1014.5
20260503232008 58 360 0.9 4.3 0.00 0.00 0.00 42 1014.5
20260503231504 58 121 0.0 2.6 0.00 0.00 0.00 42 1014.4
20260503231004 58 65 0.0 2.6 0.00 0.00 0.00 42 1014.4
20260503230509 58 360 0.0 3.5 0.00 0.00 0.00 42 1014.4
20260503230010 58 25 0.0 3.5 0.00 0.00 0.00 41 1014.3
20260503225503 58 24 0.0 3.5 0.00 0.00 0.00 41 1014.3
20260503225005 58 244 0.0 3.5 0.00 0.00 0.00 40 1014.3
20260503224524 58 254 0.9 6.1 0.00 0.00 0.00 40 1014.3
20260503224005 58 175 0.9 6.1 0.00 0.00 0.00 39 1014.3
20260503223507 58 79 1.7 6.1 0.00 0.00 0.00 39 1014.3
20260503223016 58 360 0.9 6.1 0.00 0.00 0.00 39 1014.2
20260503222507 59 71 2.6 6.1 0.00 0.00 0.00 39 1014.2
20260503222008 59 360 0.9 7.8 0.00 0.00 0.00 39 1014.2
20260503221522 59 360 1.7 7.8 0.00 0.00 0.00 38 1014.2
20260503221011 59 360 1.7 5.2 0.00 0.00 0.00 38 1014.3
20260503220508 59 360 1.7 5.2 0.00 0.00 0.00 40 1014.2
20260503220016 59 360 2.6 5.2 0.00 0.00 0.00 38 1014.3
20260503215503 59 360 0.9 7.0 0.00 0.00 0.00 39 1014.3
20260503215003 59 360 1.7 7.0 0.00 0.00 0.00 39 1014.2
20260503214511 59 360 1.7 5.2 0.00 0.00 0.00 39 1014.3
20260503214003 59 360 1.7 5.2 0.00 0.00 0.00 38 1014.3
20260503213504 59 360 0.9 5.2 0.00 0.00 0.00 39 1014.2
20260503213016 59 360 1.7 5.2 0.00 0.00 0.00 37 1014.1
20260503212513 59 92 1.7 5.2 0.00 0.00 0.00 37 1014.1
20260503212005 59 334 0.9 8.7 0.00 0.00 0.00 38 1014.1
20260503211522 59 360 2.6 8.7 0.00 0.00 0.00 37 1014.0
20260503211007 59 78 0.9 7.0 0.00 0.00 0.00 38 1014.0
20260503210508 59 360 1.7 7.0 0.00 0.00 0.00 37 1014.0
20260503210025 59 360 2.6 5.2 0.00 0.00 0.00 37 1014.0
20260503205509 59 360 1.7 5.2 0.00 0.00 0.00 37 1014.0
20260503205008 59 360 2.6 7.8 0.00 0.00 0.00 37 1014.1
20260503204508 59 360 1.7 7.8 0.00 0.00 0.00 37 1014.0
20260503204005 59 360 3.5 7.8 0.00 0.00 0.00 36 1014.1
20260503203503 59 360 2.6 7.0 0.00 0.00 0.00 37 1014.1
20260503203014 59 360 2.6 7.8 0.00 0.00 0.00 36 1014.1
20260503202504 60 360 0.9 7.8 0.00 0.00 0.00 36 1014.2
20260503202007 60 201 1.7 7.0 0.00 0.00 0.00 36 1014.2
20260503201520 60 304 1.7 7.8 0.00 0.00 0.00 36 1014.2
20260503201004 60 46 0.9 7.8 0.00 0.00 0.00 36 1014.3
20260503200508 60 234 0.9 8.7 0.00 0.00 0.00 35 1014.3
20260503200025 60 253 2.6 8.7 0.00 0.00 0.00 35 1014.3
20260503195510 61 267 2.6 7.0 0.00 0.00 0.00 35 1014.4
20260503195009 61 255 1.7 5.2 0.00 0.00 0.00 35 1014.4
20260503194524 61 218 1.7 7.0 0.00 0.00 0.00 36 1014.4
20260503194008 60 267 0.9 8.7 0.00 0.00 0.00 35 1014.4
20260503193512 61 288 2.6 8.7 0.00 0.00 0.00 36 1014.4
20260503193030 60 188 0.9 7.8 0.00 0.00 0.00 37 1014.3
20260503192504 60 342 3.5 7.8 0.00 0.00 0.00 36 1014.4
20260503192007 60 296 3.5 9.6 0.00 0.00 0.00 36 1014.5
20260503191516 61 146 1.7 9.6 0.00 0.00 0.00 35 1014.5
20260503191008 61 9 1.7 7.0 0.00 0.00 0.00 37 1014.5
20260503190511 60 225 1.7 7.8 0.00 0.00 0.00 37 1014.6
20260503190019 60 173 2.6 7.8 0.00 0.00 0.00 36 1014.6
20260503185508 60 211 2.6 8.7 0.00 0.00 0.00 36 1014.6
20260503185007 60 309 3.5 8.7 0.00 0.00 0.00 37 1014.6
20260503184521 60 360 1.7 5.2 0.00 0.00 0.00 37 1014.6
20260503184010 60 360 1.7 9.6 0.00 0.00 0.00 36 1014.7
20260503183509 59 48 3.5 9.6 0.00 0.00 0.00 36 1014.8
20260503183025 59 360 0.9 7.8 0.00 0.00 0.00 37 1014.9
20260503182509 59 360 2.6 7.8 0.00 0.00 0.00 37 1015.1
20260503182008 59 360 1.7 7.0 0.00 0.00 0.00 38 1015.0
20260503181529 59 360 2.6 7.0 0.00 0.00 0.00 38 1015.0
20260503181005 59 316 0.9 11.3 0.00 0.00 0.00 38 1015.1
20260503180504 59 360 3.5 11.3 0.00 0.00 0.00 37 1015.0
20260503180017 59 360 1.7 5.2 0.00 0.00 0.00 39 1014.8
20260503175507 58 360 2.6 5.2 0.00 0.00 0.00 41 1014.9
20260503175004 58 360 0.9 7.0 0.00 0.00 0.00 40 1014.9
20260503174530 57 37 1.7 8.7 0.00 0.00 0.00 41 1015.0
20260503174008 57 360 1.7 9.6 0.00 0.00 0.00 41 1014.9
20260503173509 57 17 3.5 9.6 0.00 0.00 0.00 40 1014.9
20260503173033 58 360 2.6 7.0 0.00 0.00 0.00 40 1015.0
20260503172512 57 360 1.7 5.2 0.00 0.00 0.00 43 1015.0
20260503172010 57 270 1.7 7.0 0.00 0.00 0.00 42 1015.0
20260503171527 57 360 1.7 7.0 0.00 0.00 0.00 42 1015.1
20260503171005 57 115 1.7 7.0 0.00 0.00 0.00 42 1015.0
20260503170501 56 16 1.7 8.7 0.00 0.00 0.00 43 1015.0
20260503151003 54 360 1.7 7.8 0.00 0.00 0.00 49 1015.4
20260503150503 54 360 1.7 7.0 0.00 0.00 0.00 48 1015.4